Погода в Сыктывкаре

Погода в Сыктывкаре : погода сейчас, прогноз погоды и архив. Всё, что Вы хотите узнать о погоде в Сыктывкаре!

Поиск расширенной информации на нашем сайте:

Другие новости

Новости СМИ2

Главная страница сайта

Новости сайта

02.10.2013

Напоминаем, что на нашем новом сайте вы можете получить высокодетализированные прогнозы погоды по пунктам России, СНГ и мира (включающие важные для авиации метеовеличины, такие как направление и скорость ветра, видимость, явления погоды, количество и форма облачности, нижняя и верхняя граница облачности), а также ознакомиться с разнообразными материалами по авиационной метеорологии и подборкой полезных ссылок на эту тему.

Сайт Метеоцентр.Азия посвящён разработке технологий оптимизации авиаметеорологического обслуживания, включая проектирование и перспективное создание нескольких автоматизированных авиаметеорологических систем:
- система выпуска высокодетальных прогностических карт явлений погоды для нижнего воздушного пространства по России и ближнему зарубежью;
- система верификации прогнозов TAF (выпускаемых синоптиками официальных АМСГ РФ и ближнего зарубежья) и AUTOTAF (выпускаемых сайтом Метеоцентр.Азия) - выявление ошибок, онлайн-сопоставление с фактической погодой METAR, автоматическое внесение коррективов в прогнозы при резком отклонении фактической погоды от прогноза, подсчёт оправдываемости прогнозов по элементам и в целом;
- система обработки, анализа и отображения авиаметеорологической информации для применения провайдерами метеорологической информации.


Погода в Сыктывкаре - сегодня

Время (UTC), дата Ветер
(°,м/с) 
Видим.   Явления Облачность Т
(°С)
Тd
(°С)
f(%) Тe
(°С)
Pmin
(гПа)
dP
(гПа)
Po
(мм)
O2
(г/м3)
Тmin Tmax R s Состояние
почвы
15 16.01.17 200 (Ю) 10 км  слаб. снег  10/5 300 м средняя 
[Sc|As op]
-10.3 -11.9 88 -13  1026.4  0.5  758  319    -4.8  0.6     
18 16.01.17 200 (Ю) 10 км  слаб. снег  10/6 450 м средняя 
[Sc|As op]
-9.6 -11.1 89 -13  1027.7  1.3  759  318           
21 16.01.17 200 (Ю) 10 км  слаб. снег  10/8 270 м средняя 
[Sc|As op]
-9 -10.3 90 -11  1028.5  0.8  760  318           
00 17.01.17 200 (Ю) 10 км  слаб. снег  10/10 270 м 
[Sc]
-9.7 -11.1 89 -13  1029.9  1.3  761  319           
03 17.01.17 200 (Ю) 10 км  слаб. снег  10/9 270 м средняя 
[Sc|As op]
-10.2 -11.4 91 -12  1030.6  0.7  761  320  -10.3    0.2  50  неравномерный
сухой снег
100% 
06 17.01.17 200 (Ю) 20000 м  {снег}  10/10 300 м 
[Sc]
-10.4 -11.5 92 -12  1031.4  0.8  762  320  -10.4         
09 17.01.17 190 (Ю) 10 км  слаб. снег  10/10 240 м 
[St]
-10.4 -11.5 92 -10  1031.4  0.8  763  321           
12 17.01.17 200 (Ю) 10 км  слаб. снег  10/10 240 м 
[St]
-9.7 -10.7 92 -10  1032.1  -0.1  763  320           
15 17.01.17 200 (Ю) 10 км  слаб. снег  10/10 450 м 
[Sc]
-10.2 -11.2 92 -10  1031.7  -0.4  762  320    -9.6  0.2     
18 17.01.17 180 (Ю) 10 км  слаб. снег  10/8 1110 м средняя 
[Sc|As op]
-10.6 -11.8 91 -10  1031.1  -0.6  762  320           
21 17.01.17 190 (Ю) 10 км  слаб. снег  10/8 1080 м средняя 
[Sc|As op]
-10.7 -11.9 91 -11  1030  -1.1  761  320           
00 18.01.17 200 (Ю) 10 км  слаб. снег  10/6 1000 м средняя 
[Sc|Ac As]
-10.5 -11.6 92 -10  1028.4  -1.6  760  320           
03 18.01.17 190 (Ю) 10 км  слаб. снег  10/10 240 м 
[Frnb]
-10.1 -11.1 92 -10  1026.9  -1.5  759  319  -11.4    0.3  49  неравномерный
сухой снег
100% 
06 18.01.17 200 (Ю) 10 км  слаб. снег  10/0 средняя 
[Ac As]
-11.2 -12.4 91 -13  1025.3  -1.6  757  319  -11.2         
09 18.01.17 180 (Ю) 10 км  слаб. снег  10/0 средняя 
[Ac As]
-12.9 -14.8 86 -15  1023.5  -1.9  756  321           
12 18.01.17 190 (Ю) 10 км  слаб. снег  10/0 средняя, верхняя 
[As trans|Ci sp]
-13.1 -14.8 87 -15  1021.9  -1.5  755  321           
15 18.01.17 200 (Ю) 10 км  слаб. снег  10/0 средняя, верхняя 
[As trans|Ci sp]
-13.4 -14.9 88 -16  1020.6  -1.4  754  321    -10  0.6     
18 18.01.17 190 (Ю) 10 км  слаб. снег  10/0 средняя 
[As op]
-13.2 -14.6 89 -15  1018.9  -1.6  753  320           
21 18.01.17 200 (Ю) 10 км  слаб. снег  10/6 420 м средняя 
[Sc|As op]
-13.1 -14.4 90 -15  1017.3  -1.6  751  319           
00 19.01.17 200 (Ю) 10 км  слаб. снег  10/0 средняя 
[As op]
-12.5 -13.8 90 -15  1016.2  -1.1  751  318           
03 19.01.17 200 (Ю) 10 км  слаб. снег  10/0 средняя 
[As op]
-11.5 -12.7 91 -13  1013.8  -2.3  749  316  -13.6    0.8  49  неравномерный
сухой снег
100% 
06 19.01.17 190 (Ю) 10 км  слаб. снег  10/0 средняя 
[Ac As]
-9.9 -10.7 94 -12  1011.1  -2.5  747  313           
09 19.01.17 190 (Ю) 10 км  слаб. снег  10/8 240 м средняя 
[Sc|As op]
-8.2 -9.2 92 -12  1005.7  -5.2  743  310           
12 19.01.17 190 (Ю) 4{11}  1000 м  сильн. снег  10/9 240 м средняя 
[Sc|As op]
-7.7 -8.7 93 -11  1000.2  -5.4  739  307           
15 19.01.17 200 (Ю) 5-10{11}  4000 м  снег [диам. гололёда 1 мм]  10/8 210 м средняя 
[Sc|As op]
-6.6 -7.5 93 -11  994.8  -5.2  735  304    -6.6     
Время (UTC), дата Ветер
(°,м/с) 
Видим.   Явления Облачность Т
(°С)
Тd
(°С)
f(%) Тe
(°С)
Pmin
(гПа)
dP
(гПа)
Po
(мм)
O2
(г/м3)
Тmin Tmax R s Состояние
почвы

Для получения пояснительной информации подведите курсор к названию столбца.

ПОГОДА в Сыктывкаре - архив

Всё, что Вы хотите узнать о погоде в Сыктывкаре - удобно и подробно!

Выберите нужную дату (начиная с 1 января 2015* года) и нажмите кнопку "Найти".
Будут отображены архивные сводки погоды по пункту Сыктывкар, начиная с указанной даты.


Отображать данные в формате CSV (для использования в таблицах Excel)


Внимание! Наш архив погоды предназначен исключительно для личного некоммерческого использования в познавательных целях. Если Вам необходимы официальные справки о состоянии погоды (для производственных, юридических, коммерческих и т.п. целей), обращайтесь в органы Росгидромета.

*Примечание: данная дата относится к архиву по метеостанциям СССР (Россия, СНГ, Балтия).
Архив по метеостанциям Зарубежной Европы и Азии (кроме Китая) хранится 10 дней, по другим регионам земного шара (Китай, Африка, Америка, Австралия, Океания) - 1 день.

Сыктывкар - район местоположения метеостанции


Название, широта, долгота, высота метеостанции:
Сыктывкар (город) 61.7°ш. 50.8°д. 104 м над ур. моря [Российская Федерация]

Дополнительная информация

В oтличие oт бoльшинства пoгoдных сайтoв мы публикуем пoдрoбную метеoинфoрмацию в детальнoм прoфессиoнальнoм фoрмате.

Характеристики температуры и влажнoсти вoздуха измеряются на высoте 2 м в тени вдали oт зданий и деревьев.
Скoрoсть ветра измеряется на высoте 10 м (на урoвне рoста челoвека скoрoсть ветра ниже в 1.5-2 раза). Если метеoстанция нахoдится в гoрoде или в лесу, тo скoрoсть ветра занижена на 2-4 м/с пo сравнению с oткрытым местoм. Скoрoсть ветра над акватoриями крупных рек и oзёр, а также на вершинах хoлмoв на 2-5 м/с выше, чем в oбычных услoвиях.
Атмoсфернoе давление в разных тoчках местнoсти мoжет значительнo oтличаться oт давления на метеoстанции, в зависимoсти oт услoвий рельефа (при пoдъёме на 10 м давление пoнижается примернo на 1 мм рт.ст.).